Location: Ellerstadt
(49.4644°N, 8.2615°E)
Time: 03:23:38
(UTC+00:00)

GP-B - Pass Details

Date: 03 March 2021
Orbit: 631 x 635 km, 89.8° (Epoch: 11 April)

Event Time Altitude Azimuth Distance (km) Brightness Sun altitude
Rises 17:45:48 0° 143° (SE) 2,922 6.2 -6.1°
Reaches altitude 10° 17:48:19 10° 130° (SE) 2,019 5.3 -6.5°
Maximum altitude 17:51:54 25° 76° (ENE) 1,299 4.2 -7.1°
Drops below altitude 10° 17:55:31 10° 22° (NNE) 2,033 5.5 -7.7°
Sets 17:58:03 0° 9° (N) 2,947 6.4 -8.1°
